sat.trackr.live / text

‹ back to catalog

STARLINK-36816

NORAD 67891 · 2026-035N

PAYLOAD ACTIVE UNKNOWN

§ Identity

Operator
Country
US
Launch date
2026-02-21
Launch site
AFWTR
Launch vehicle
Mass (kg)
RCS (m²)

Purposes: comms

External: N2YO · Heavens-Above · Gunter

§ Orbital elements

Epoch: 2026-09-19T05:37:02.344224Z

Period
93.91 min
Inclination
97.2846°
Eccentricity
0.0001464
Mean motion
15.33461450 rev/d
Perigee alt
464.5 km
Apogee alt
466.5 km
Semi-major
6,843.6 km
B*
6.7778e-4
RAAN
193.1065°
Arg perigee
116.0821°
Mean anomaly
244.0572°
Rev number
3,358

§ Raw data

STARLINK-368161 67891U 26035N   26262.23405491  .00021881  00000+0  67778-3 0  99902 67891  97.2846 193.1065 0001464 116.0821 244.0572 15.33461450 33583

JSON: /api/v1/satellites/67891 · /tle

For live sub-satellite position, see the globe view (requires WebGL).

§ Visibility from observer

Set your observer location to see the next 7 days of passes ≥ 10°. The values pass through the URL so the page stays shareable.

No JS? Fill the form by hand. The geolocation button needs JavaScript.